Conway, SC

4:42 PM EDT on May 29, 2017 (GMT -0400)
Conway-Horry County

Weather History for KHYW - February, 2013

Change the Weather History Date:

Thursday, February 7, 2013

  Actual Average Record
Temperature  
Mean Temperature 47 °F -  
Max Temperature 55 °F 54 °F 73 °F (2017)
Min Temperature 39 °F 33 °F 26 °F (2015)
Degree Days  
Heating Degree Days 18    
Moisture  
Dew Point 48 °F    
Average Humidity 96    
Maximum Humidity 100    
Minimum Humidity 72    
Precipitation  
Precipitation 0.78 in - - ()
Sea Level Pressure  
Sea Level Pressure 30.10 in    
Wind  
Wind Speed 5 mph (NE)    
Max Wind Speed 16 mph    
Max Gust Speed 26 mph    
Visibility 7 miles    
Events Rain , Thunderstorm    
Averages and records for this station are not official NWS values.
T = Trace of Precipitation, MM = Missing Value Source: NWS Daily Summary

Daily Weather History Graph

Daily Weather History Graph

Search for Another Location

Airport or City:

Trip Planner

Search our weather history database for the weather conditions in past years. The results will help you decide how hot, cold, wet, or windy it might be!

Date:

Astronomy

Feb. 07, 2013 Rise Set
Actual Time 7:08 AM EST 5:53 PM EST
Civil Twilight 6:42 AM EST 6:19 PM EST
Nautical Twilight 6:12 AM EST 6:48 PM EST
Astronomical Twilight 5:43 AM EST 7:18 PM EST
Moon 4:41 AM EST (2/7) 3:19 PM EST (2/7)
Length of Visible Light 11h 36m
Length of Day
10h 45m
Waning Crescent, 9% of the Moon is Illuminated
Feb 7
Waning Crescent
Feb 10
New
Feb 17
First Quarter
Feb 25
Full
Mar 4
Last Quarter

Hourly Weather History & Observations

Time (EST) Temp. Windchill Dew Point Humidity Pressure Visibility Wind Dir Wind Speed Gust Speed Precip Events Conditions
12:15 AM 41.0 °F - 41.0 °F 100% 30.21 in 7.0 mi Calm Calm - N/A   Clear
12:35 AM 39.2 °F - 39.2 °F 100% 30.20 in 5.0 mi Calm Calm - N/A   Clear
12:55 AM 39.2 °F - 39.2 °F 100% 30.20 in 5.0 mi Calm Calm - N/A   Clear
1:15 AM 41.0 °F - 41.0 °F 100% 30.20 in 5.0 mi Calm Calm - N/A   Clear
1:35 AM 39.2 °F - 39.2 °F 100% 30.20 in 5.0 mi Calm Calm - N/A   Clear
1:55 AM 41.0 °F 39.0 °F 41.0 °F 100% 30.20 in 5.0 mi NNE 3.5 mph - N/A   Clear
2:15 AM 41.0 °F 38.0 °F 41.0 °F 100% 30.21 in 5.0 mi NNE 4.6 mph - N/A   Clear
2:35 AM 42.8 °F 41.1 °F 42.8 °F 100% 30.21 in 7.0 mi NNE 3.5 mph - N/A   Clear
2:55 AM 42.8 °F 39.3 °F 42.8 °F 100% 30.20 in 7.0 mi NE 5.8 mph - N/A   Clear
3:15 AM 42.8 °F 41.1 °F 42.8 °F 100% 30.20 in 7.0 mi NE 3.5 mph - N/A   Clear
3:35 AM 44.6 °F 42.2 °F 44.6 °F 100% 30.20 in 5.0 mi NE 4.6 mph - N/A   Clear
3:55 AM 42.8 °F 41.1 °F 42.8 °F 100% 30.20 in 7.0 mi NE 3.5 mph - N/A   Clear
4:15 AM 42.8 °F 40.1 °F 42.8 °F 100% 30.20 in 7.0 mi NNE 4.6 mph - N/A   Clear
4:35 AM 42.8 °F 41.1 °F 42.8 °F 100% 30.20 in 7.0 mi NNE 3.5 mph - N/A   Clear
4:55 AM 42.8 °F 41.1 °F 42.8 °F 100% 30.20 in 7.0 mi NNE 3.5 mph - N/A   Clear
5:15 AM 42.8 °F 40.1 °F 42.8 °F 100% 30.21 in 5.0 mi NNE 4.6 mph - N/A   Clear
5:35 AM 42.8 °F 40.1 °F 42.8 °F 100% 30.21 in 7.0 mi NNE 4.6 mph - N/A   Clear
5:55 AM 42.8 °F 40.1 °F 42.8 °F 100% 30.22 in 7.0 mi NNE 4.6 mph - N/A   Clear
6:15 AM 42.8 °F 41.1 °F 42.8 °F 100% 30.22 in 7.0 mi NNE 3.5 mph - N/A   Clear
6:35 AM 42.8 °F 40.1 °F 42.8 °F 100% 30.22 in 5.0 mi NNE 4.6 mph - N/A   Clear
6:55 AM 42.8 °F 39.3 °F 42.8 °F 100% 30.21 in 7.0 mi NNE 5.8 mph - N/A   Clear
7:15 AM 42.8 °F 39.3 °F 42.8 °F 100% 30.21 in 5.0 mi NE 5.8 mph - N/A   Clear
7:35 AM 44.6 °F 42.2 °F 44.6 °F 100% 30.21 in 4.0 mi NE 4.6 mph - N/A   Clear
7:55 AM 44.6 °F 41.4 °F 44.6 °F 100% 30.21 in 4.0 mi NNE 5.8 mph - N/A   Clear
8:15 AM 44.6 °F 42.2 °F 44.6 °F 100% 30.22 in 4.0 mi NE 4.6 mph - N/A   Scattered Clouds
8:35 AM 46.4 °F 42.9 °F 46.4 °F 100% 30.22 in 5.0 mi NE 6.9 mph - N/A   Overcast
8:55 AM 46.4 °F 42.9 °F 46.4 °F 100% 30.22 in 5.0 mi NE 6.9 mph - N/A   Mostly Cloudy
9:15 AM 48.2 °F - 48.2 °F 100% 30.20 in 5.0 mi NE 9.2 mph - N/A   Scattered Clouds
9:35 AM 50.0 °F - 48.2 °F 94% 30.20 in 5.0 mi NE 8.1 mph - N/A   Clear
9:55 AM 51.8 °F - 48.2 °F 88% 30.19 in 5.0 mi NE 9.2 mph - N/A   Clear
10:15 AM 51.8 °F - 46.4 °F 82% 30.19 in 7.0 mi NE 8.1 mph - N/A   Mostly Cloudy
10:35 AM 53.6 °F - 48.2 °F 82% 30.19 in 5.0 mi NE 9.2 mph - N/A   Haze
10:55 AM 53.6 °F - 46.4 °F 77% 30.18 in 5.0 mi ENE 8.1 mph - N/A   Haze
11:15 AM 55.4 °F - 46.4 °F 72% 30.17 in 7.0 mi ENE 9.2 mph - N/A   Mostly Cloudy
11:35 AM 55.4 °F - 46.4 °F 72% 30.17 in 7.0 mi NE 9.2 mph - N/A   Overcast
11:55 AM 55.4 °F - 48.2 °F 77% 30.16 in 7.0 mi NNE 8.1 mph - N/A   Overcast
12:15 PM 55.4 °F - 48.2 °F 77% 30.15 in 5.0 mi NE 8.1 mph - N/A   Haze
12:35 PM 55.4 °F - 48.2 °F 77% 30.14 in 5.0 mi NE 10.4 mph - N/A   Haze
12:55 PM 55.4 °F - 48.2 °F 77% 30.14 in 7.0 mi NNE 6.9 mph - N/A   Overcast
1:15 PM 55.4 °F - 50.0 °F 82% 30.12 in 10.0 mi NNE 9.2 mph - N/A Rain Rain
1:35 PM 53.6 °F - 50.0 °F 88% 30.11 in 10.0 mi North 8.1 mph - N/A Rain Light Rain
1:55 PM 53.6 °F - 50.0 °F 88% 30.10 in 10.0 mi North 6.9 mph - N/A Rain Light Rain
2:15 PM 53.6 °F - 51.8 °F 94% 30.09 in 10.0 mi NNE 9.2 mph - N/A Rain Light Rain
2:35 PM 53.6 °F - 51.8 °F 94% 30.08 in 10.0 mi NNE 9.2 mph - N/A Rain Light Rain
2:55 PM 53.6 °F - 53.6 °F 100% 30.07 in 10.0 mi NNE 10.4 mph - N/A Rain Rain
3:15 PM 53.6 °F - 53.6 °F 100% 30.06 in 10.0 mi NNE 9.2 mph - 0.01 in Rain Light Rain
3:35 PM 51.8 °F - 51.8 °F 100% 30.05 in 7.0 mi NNE 8.1 mph 16.1 mph 0.02 in Rain Rain
3:55 PM 51.8 °F - 51.8 °F 100% 30.05 in 7.0 mi NNE 8.1 mph - 0.03 in Rain Light Rain
4:15 PM 51.8 °F - 51.8 °F 100% 30.04 in 5.0 mi NNE 10.4 mph - 0.02 in Rain Rain
4:35 PM 51.8 °F - 51.8 °F 100% 30.03 in 5.0 mi NNE 11.5 mph - 0.05 in Rain Rain
4:55 PM 51.8 °F - 51.8 °F 100% 30.02 in 4.0 mi NNE 10.4 mph 17.3 mph 0.10 in Rain Heavy Rain
5:15 PM 53.6 °F - 53.6 °F 100% 30.02 in 5.0 mi NNE 9.2 mph - 0.06 in Rain Heavy Rain
5:35 PM 53.6 °F - 53.6 °F 100% 30.02 in 4.0 mi NNE 10.4 mph - 0.15 in Rain Heavy Rain
5:55 PM 53.6 °F - 53.6 °F 100% 30.00 in 7.0 mi NE 11.5 mph 16.1 mph 0.21 in Rain Light Rain
6:15 PM 53.6 °F - 53.6 °F 100% 30.00 in 7.0 mi NNE 6.9 mph - 0.03 in Rain Heavy Rain
6:35 PM 53.6 °F - 53.6 °F 100% 30.01 in 5.0 mi NNE 4.6 mph - 0.10 in Rain Rain
6:55 PM 53.6 °F - 53.6 °F 100% 29.99 in 7.0 mi NNE 10.4 mph 17.3 mph 0.14 in Rain Light Rain
7:15 PM 53.6 °F - 53.6 °F 100% 29.98 in 7.0 mi NE 9.2 mph - 0.02 in Rain Rain
7:35 PM 53.6 °F - 53.6 °F 100% 29.96 in 7.0 mi NNE 10.4 mph - 0.07 in Rain Rain
7:55 PM 53.6 °F - 53.6 °F 100% 29.95 in 10.0 mi NE 12.7 mph - 0.10 in Rain Rain
8:15 PM 53.6 °F - 53.6 °F 100% 29.94 in 10.0 mi NNE 11.5 mph - 0.01 in Rain Light Rain
8:35 PM 53.6 °F - 53.6 °F 100% 29.94 in 10.0 mi NE 9.2 mph - 0.04 in Rain Rain
8:55 PM 53.6 °F - 53.6 °F 100% 29.90 in 10.0 mi NE 15.0 mph 20.7 mph 0.06 in Rain Light Rain
9:15 PM 53.6 °F - 53.6 °F 100% 29.89 in 10.0 mi NE 16.1 mph 20.7 mph 0.01 in Rain Light Rain
9:35 PM 53.6 °F - 53.6 °F 100% 29.87 in 10.0 mi NE 15.0 mph 26.5 mph 0.01 in Rain Light Rain
9:55 PM 53.6 °F - 53.6 °F 100% 29.86 in 10.0 mi NE 13.8 mph 23.0 mph 0.02 in Rain Light Rain
10:15 PM 51.8 °F - 51.8 °F 100% 29.84 in 7.0 mi NE 12.7 mph 23.0 mph 0.02 in Rain , Thunderstorm Rain
10:35 PM 51.8 °F - 51.8 °F 100% 29.82 in 10.0 mi NE 13.8 mph 18.4 mph 0.06 in Rain , Thunderstorm Light Thunderstorms and Rain
10:55 PM 51.8 °F - 51.8 °F 100% 29.80 in 10.0 mi NE 10.4 mph 16.1 mph 0.08 in Rain Light Rain
11:15 PM 51.8 °F - 51.8 °F 100% 29.77 in 10.0 mi NE 12.7 mph 21.9 mph 0.03 in Rain Light Rain
11:35 PM 53.6 °F - 53.6 °F 100% 29.76 in 10.0 mi NE 10.4 mph - 0.04 in Rain Light Rain